Location: Austin
(30.3000°N, 97.7500°W)
Time: 04:43:22
(UTC-06:00)

Meteor 2-16 Rocket - Pass Details

Date: 05 February 2026
Orbit: 940 x 957 km, 82.6° (Epoch: 15 February)

Event Time Altitude Azimuth Distance (km) Brightness Sun altitude
Rises 06:03:57 0° 355° (N) 3,608 7.3 -16.6°
Reaches altitude 10° 06:06:27 10° 356° (N) 2,662 6.7 -16.1°
Maximum altitude 06:12:32 84° 84° (E) 954 4.5 -14.8°
Drops below altitude 10° 06:18:38 10° 173° (S) 2,659 7.0 -13.5°
Sets 06:21:07 0° 174° (S) 3,603 7.7 -12.9°
